Regional Weather Roundup
Issued by NWS

Home | Current Version | Previous Version | Text Only | Print | Product List | Glossary On
Versions: 1 2 3 4 5 6 7 8 9 10 11 12 13 14 15 16 17 18 19 20 21 22 23 24 25 26 27 28 29 30 31 32 33 34 35 36 37 38 39 40 41 42 43 44 45 46 47 48 49 50
000
ASUS43 KMPX 181601
RWRMN
WEATHER ROUNDUP FOR MINNESOTA
NATIONAL WEATHER SERVICE TWIN CITIES/CHANHASSEN MN
1100 AM CDT FRI AUG 18 2017


NOTE: "FAIR" INDICATES FEW OR NO CLOUDS BELOW 12,000 FEET WITH NO
SIGNIFICANT WEATHER AND/OR OBSTRUCTIONS TO VISIBILITY. N/A MEANS
CURRENT SKY AND/OR WEATHER CONDITIONS ARE NOT AVAILABLE.

MNZ060>063-068>070-181700-
   Twin Cities Metro

CITY           SKY/WX    TMP DP  RH WIND       PRES   REMARKS
TWIN CITIES    LGT RAIN  66  62  87 SW7       29.90R
ST PAUL        LGT RAIN  66  63  90 SW3       29.90R
CRYSTAL        CLOUDY    67  59  75 SW7       29.89R
BLAINE         CLOUDY    70  64  83 CALM      29.89R
LAKEVILLE      LGT RAIN  63  63 100 W3        29.92S
EDEN PRAIRIE   LGT RAIN  66  63  90 SW7       29.90S
SOUTH ST PAUL  LGT RAIN  65  64  94 W9        29.90S
LAKE ELMO      FAIR      68  63  83 W5        29.91R
$$
MNZ001>005-007-008-013>017-022>024-027-028-181700-
   Northwest Minnesota

CITY           SKY/WX    TMP DP  RH WIND       PRES   REMARKS
BEMIDJI        SUNNY     74  60  62 NW8       29.87R
HALLOCK        CLOUDY    70  59  68 SW3       29.84S
ROSEAU         SUNNY     73  59  60 CALM      29.84F
WARROAD        MOSUNNY   72  61  68 CALM      29.83F
CROOKSTON      SUNNY     73  59  60 N7        29.86S
FOSSTON        SUNNY     75  59  57 NW9       29.87S
DETROIT LAKES  LGT RAIN  66  59  77 W5        29.91S
MOORHEAD       MOSUNNY   66  63  88 SW5       29.90R
PARK RAPIDS    MOSUNNY   74  62  66 CALM      29.88R
MAHNOMEN       FAIR      72  60  66 NW6       29.88R
$$
MNZ006-009>011-018-025>026-181700-
   North Central Minnesota

CITY           SKY/WX    TMP DP  RH WIND       PRES   REMARKS
BAUDETTE       SUNNY     72  56  57 NW10      29.84S
FLAG ISLAND    CLOUDY    70  55  60 CALM      29.80F
INTL FALLS     SUNNY     71  60  68 W7        29.83F
WASKISH        SUNNY     72  61  68 W5        29.85S
BIG FORK       MOSUNNY   73  57  56 CALM      29.85S
LONGVILLE      MOSUNNY   70  61  73 NW6       29.88R
GRAND RAPIDS   CLOUDY    67  61  81 CALM      29.88S
CRANE LAKE     CLOUDY    63  61  94 CALM      29.86S
ORR            MOSUNNY   68  59  73 CALM      29.82S
COOK           PTSUNNY   64  61  88 CALM      29.86S
WALKER         FAIR      70  60  72 W6        29.87S
$$
MNZ012-019>021-037-181700-
   Northeast Minnesota

CITY           SKY/WX    TMP DP  RH WIND       PRES   REMARKS
DULUTH         PTSUNNY   65  59  81 NW7       29.86R
ELY            MOSUNNY   63  55  77 CALM      29.85S
HIBBING        CLOUDY    64  60  87 CALM      29.86R
EVELETH        CLOUDY    64  57  79 CALM      29.87R
DULUTH HARBOR  CLOUDY    64  61  88 SW3       29.85S
SILVER BAY     CLOUDY    66  57  72 W5        29.82S
GRAND MARAIS     N/A     71  56  58 VRB5      29.79R
$$
MNZ029>031-032-039>041-046>048-054>057-064-181700-
   West Central Minnesota

CITY           SKY/WX    TMP DP  RH WIND       PRES   REMARKS
FERGUS FALLS   CLOUDY    66  66 100 W7        29.90R
WHEATON        LGT RAIN  66  61  82 NW6       29.91R
MORRIS         CLOUDY    70  63  78 S7        29.89S
ALEXANDRIA     MOSUNNY   68  61  78 SW8       29.93R
ELBOW LAKE     PTSUNNY   66  62  88 W6        29.91R FOG
WADENA         MOSUNNY   70  61  73 CALM      29.89S
GLENWOOD       MOSUNNY   66  61  82 SW8       29.92R
APPLETON       CLOUDY    66  63  88 S3        29.90S
BENSON         CLOUDY    66  61  82 W8        29.93R
ORTONVILLE     CLOUDY    70  61  73 MISG      29.89S
MADISON        CLOUDY    70  63  78 SW5       29.90S
WILLMAR        FAIR      66  63  88 W9        29.93R
$$
MNZ033>034-036-042>043-049>051-058-059-181700-
   Central Minnesota

CITY           SKY/WX    TMP DP  RH WIND       PRES   REMARKS
ST CLOUD       CLOUDY    65  63  93 SW3       29.89R
SAUK CENTRE    FAIR      66  60  81 SW6       29.92R
PAYNESVILLE    CLOUDY    64  62  91 SW7       29.91S
AITKIN         CLOUDY    64  61  88 W3        29.87S
PINE RIVER     CLOUDY    66  59  77 CALM      29.92R
BRAINERD       CLOUDY    65  61  87 CALM      29.89R
STAPLES        PTSUNNY   70  61  73 W3        29.90R
LONG PRAIRIE   PTSUNNY   64  61  88 SW6       29.92R
LITTLE FALLS   CLOUDY    63  61  94 CALM      29.90R
LITCHFIELD     CLOUDY    66  63  88 SW5       29.91F
BUFFALO        LGT RAIN  66  61  82 W6        29.91R
MAPLE LAKE     LGT RAIN  66  63  90 CALM      29.92R
HUTCHINSON     DRIZZLE   65  64  96 S5        29.91F
$$
MNZ037-044-045-052-053-181700-
   East Central Minnesota

CITY           SKY/WX    TMP DP  RH WIND       PRES   REMARKS
PRINCETON      CLOUDY    66  63  88 CALM      29.90R
MORA           CLOUDY    63  61  94 CALM      29.90R
RUSH CITY      CLOUDY    65  60  83 CALM      29.89R
MOOSE LAKE     CLOUDY    64  59  82 CALM      29.86R
HINCKLEY       FAIR      68  63  83 CALM      29.89R
CLOQUET        CLOUDY    66  57  72 CALM      29.87R
MCGREGOR       CLOUDY    63  61  94 CALM      29.88R
$$
MNZ071>073-080-081-089-090-097-098-181700-
   Southwest Minnesota

CITY           SKY/WX    TMP DP  RH WIND       PRES   REMARKS
MONTEVIDEO     LGT RAIN  63  63 100 SW3       29.92S
GRANITE FALLS  PTSUNNY   66  63  89 S3        29.93S
CANBY          CLOUDY    72  61  68 SW6       29.91F
MARSHALL       MOSUNNY   70  63  78 SW6       29.93S
REDWOOD FALLS  CLOUDY    63  59  87 SW7       29.93R
OLIVIA         CLOUDY    63  59  88 SW7       29.92R
PIPESTONE      SUNNY     72  63  73 SW7       29.95R
WORTHINGTON    SUNNY     69  61  75 S6        29.96S
JACKSON        CLOUDY    66  61  82 CALM      29.96S
TRACY          MOSUNNY   69  65  86 SW6       29.94S
SLAYTON        SUNNY     67  58  71 SE3       29.95F
$$
MNZ065>067-074>077-082>085-091>093-181700-
   South Central Minnesota

CITY           SKY/WX    TMP DP  RH WIND       PRES   REMARKS
MANKATO        LGT RAIN  62  61  96 W8        29.96R FOG
NEW ULM        PTSUNNY   64  61  88 SE6       29.93F
ST JAMES       LGT RAIN  66  63  88 CALM      29.95S
FAIRMONT       LGT RAIN  64  61  90 CALM      29.95F
GLENCOE        DRIZZLE   65  65 100 SW3       29.92S
FARIBAULT      LGT RAIN  64  63  94 W6        29.94R
OWATONNA       PTSUNNY   63  63 100 W5        29.94S
WASECA         LGT RAIN  63  61  94 NW3       29.95S
ALBERT LEA     DRIZZLE   66  64  94 NW6       29.94S
$$
MNZ078>079-086>088-094>096-181700-
   Southeast Minnesota

CITY           SKY/WX    TMP DP  RH WIND       PRES   REMARKS
ROCHESTER      LGT RAIN  64  60  87 NW8       29.94S
RED WING       LGT RAIN  66  61  82 W7        29.90S
STANTON        DRIZZLE   65  63  91 SW5       29.91S
DODGE CENTER   LGT RAIN  63  61  94 W3        29.94F
WINONA         CLOUDY    70  61  73 NW5       29.92R
AUSTIN         LGT RAIN  63  61  94 NW3       29.93F
PRESTON        CLOUDY    64  59  85 NW7       29.93F
$$
ABBREVIATIONS USED IN REMARKS
   TC - TEMPERATURES IN CELSIUS
  WCI - WIND CHILL INDEX
   HX - HEAT INDEX
  VSB - VISIBILITY
$$




USA.gov is the U.S. government's official web portal to all federal, state and local government web resources and services.